Regional Weather Roundup
Issued by NWS

Home | Current Version | Previous Version | Graphics & Text | Print | Product List | Glossary On
Versions: 1 2 3 4 5 6 7 8 9 10 11 12 13 14 15 16 17 18 19 20 21 22 23 24 25 26 27 28 29 30 31 32 33 34 35 36 37 38 39 40 41 42 43 44 45 46 47 48 49 50
000
ASUS43 KMKX 071500
RWRWI

WISCONSIN REGIONAL WEATHER ROUNDUP
NATIONAL WEATHER SERVICE MILWAUKEE/SULLIVAN WI
1000 AM CDT TUE JUL 07 2015

NOTE: "FAIR" INDICATES FEW OR NO CLOUDS BELOW 12,000 FEET WITH NO
SIGNIFICANT WEATHER AND/OR OBSTRUCTIONS TO VISIBILITY.

WIZ001-002-006>008-014>016-023>028-071600-
NORTHWEST WISCONSIN

CITY           SKY/WX    TMP DP  RH WIND       PRES   REMARKS
SUPERIOR ARPT  SUNNY     62  48  58 N9        30.15S
ASHLAND        SUNNY     62  50  64 N10       30.14R
HAYWARD        PTSUNNY   60  48  64 NE8       30.15R
SIREN          MOSUNNY   60  46  57 N9        30.16R
CUMBERLAND     MOSUNNY   57  43  58 N10       30.15R
RICE LAKE      PTSUNNY   60  46  60 N12       30.16R
CHETEK         MOSUNNY   60  47  61 N12       30.14R
LADYSMITH      MOSUNNY   58  48  68 N10G17    30.14S
EAU CLAIRE     NOT AVBL
MENOMONIE      MOSUNNY   60  43  52 N9G18     30.14R
NEW RICHMOND   MOSUNNY   60  47  60 N6        30.16R
OSCEOLA        SUNNY     60  46  60 N9        30.19S
$$

WIZ003>005-009-010-017-018-071600-
NORTH CENTRAL WISCONSIN

CITY           SKY/WX    TMP DP  RH WIND       PRES   REMARKS
MANITOWISH WTR PTSUNNY   56  47  71 N9        30.10S
ARBOR VITAE    PTSUNNY   59  49  68 N10       30.09S
WOODRUFF       PTSUNNY   59  49  68 N10       30.09S
RHINELANDER    CLOUDY    57  44  62 N9G18     30.09R
EAGLE RIVER    CLOUDY    55  45  67 N12G21    30.08S
LAND O LAKES   PTSUNNY   57  46  67 N14G21    30.10S
PHILLIPS       MOSUNNY   56  47  71 N13G18    30.11S
TOMAHAWK       PTSUNNY   55  45  69 N9        30.10R
MEDFORD        CLOUDY    55  46  70 N14G21    30.10R
MERRILL        CLOUDY    56  47  70 N12G20    30.10R
$$

WIZ029-030-035-036-043>047-071600-
CENTRAL WISCONSIN

CITY           SKY/WX    TMP DP  RH WIND       PRES   REMARKS
WAUSAU         PTSUNNY   60  44  55 N10G22    30.08R
MOSINEE        NOT AVBL
MARSHFIELD     PTSUNNY   60  44  55 N13       30.10R
STEVENS POINT  PTSUNNY   58  45  60 N10       30.09R
WAUPACA        PTSUNNY   64  52  65 N8        30.06R
WAUTOMA        NOT AVBL
WISC RAPIDS    PTSUNNY   64  46  52 NE14G21   30.09R
CAMP DOUGLAS   NOT AVBL
$$

WIZ011>013-019>022-031-037>040-048>050-071600-
NORTHEAST WISCONSIN

CITY           SKY/WX    TMP DP  RH WIND       PRES   REMARKS
ANTIGO         PTSUNNY   55  46  72 N13       30.08R
SHAWANO        MOSUNNY   64  46  51 N9G20     30.05R
OCONTO         MOSUNNY   62  49  63 N10       30.03R
STURGEON BAY   MOSUNNY   59  48  67 N16G24    30.04R
GREEN BAY      PTSUNNY   65  49  56 N13       30.04R
MANITOWOC      NOT AVBL
APPLETON       PTSUNNY   61  46  59 N16       30.05R
CLINTONVILLE   MOSUNNY   61  45  55 N12       30.06R
OSHKOSH        MOSUNNY   65  49  56 N12       30.04R
$$

WIZ032>034-041-042-053>061-071600-
SOUTHWEST WISCONSIN

CITY           SKY/WX    TMP DP  RH WIND       PRES   REMARKS
LA CROSSE      MOSUNNY   62  46  55 N12       30.11R
SPARTA         MOSUNNY   60  46  61 N10       30.11R
VIROQUA        MOSUNNY   60  50  70 N10       30.10R
BOSCOBEL       MOSUNNY   65  53  65 N10       30.08R
PRAIRIE DU CHI MOSUNNY   63  51  64 N9        30.08R
PLATTEVILLE    CLOUDY    61  55  83 N12       30.07R
$$

WIZ056-057-062-063-064-067-068-071600-
SOUTH CENTRAL WISCONSIN

CITY           SKY/WX    TMP DP  RH WIND       PRES   REMARKS
REEDSBURG      MOSUNNY   60  53  76 N9        30.06S
BARABOO/DELLS  PTSUNNY   60  52  73 N6        30.06R
LONE ROCK      NOT AVBL
MINERAL POINT  CLOUDY    61  55  82 N9        30.06R HAZE
MADISON        PTSUNNY   64  55  72 N10       30.04R SMOKE
MIDDLETON      PTSUNNY   64  54  71 N8        30.05R
WATERTOWN      PTSUNNY   64  56  76 N9        30.02R
MONROE         PTSUNNY   63  55  77 N10G18    30.03R HAZE
JANESVILLE     CLOUDY    66  55  68 N13       30.01R HAZE
$$

WIZ051-052-058>065-066-070>072-071600-
SOUTHEAST WISCONSIN

CITY           SKY/WX    TMP DP  RH WIND       PRES   REMARKS
MILWAUKEE      MOSUNNY   63  49  60 NE17G24   30.01R
WAUKESHA       MOSUNNY   63  52  67 N7        30.03R
MILWAUKEE/TIMM SUNNY     64  48  55 N14       30.02R
RACINE         SUNNY     63  51  65 N13G24    30.03R
BURLINGTON     MOSUNNY   61  56  82 NE8       30.01R
KENOSHA        MOSUNNY   64  51  62 N12       30.01R
FOND DU LAC    PTSUNNY   63  49  60 N14       30.04R
SHEBOYGAN      MOSUNNY   62  48  60 N13G22    30.02R
WEST BEND      MOSUNNY   61  50  67 N8        30.02R
JUNEAU         MOSUNNY   61  50  67 N14       30.04R
$$

LSZ147-162-071600-
LAKE SUPERIOR

STATION/POSITION TIME  TEMP    WIND        PRES    WAVE
                       AIR SEA DIR/SP/G            HT/PER
                 (UTC) (F)     (DEG/KT/KT) (MB)    (FT/S)
W MID LAKE BUOY  1350   46 39  290/  8/ 10 1019.7R   1
DEVILS ISLAND    1400   56     340/ 11/ 12 1020.5R
PORT WING        1440   59     350/  5/  8 1021.0R
SAXON HARBOR     1400   59     350/ 10/ 14 1019.6R
$$

LMZ867-665-643>646-071600-
LAKE MICHIGAN

STATION/POSITION TIME  TEMP    WIND        PRES    WAVE
                       AIR SEA DIR/SP/G            HT/PER
                 (UTC) (F)     (DEG/KT/KT) (MB)    (FT/S)
CHAMBERS ISLAND  1400   59     320/ 16/ 18 1016.3R
N MID LAKE BUOY  1350   53 51  310/ 16/ 19 1014.8R   3/ 4
NORTHPORT PIER   1400   58     330/ 18/ 22 1015.9R
SISTER BAY       1329   59     360/ 19/ 25   N/A
ALGOMA LAKESHORE 1411           10/ 17/ 22   N/A
KEWAUNEE LAKESHO 1400   60     350/ 14/ 19 1015.2R
SHEBOYGAN LAKESH 1400   58     350/ 14/ 15 1016.1R
PORT WASHINGTON  1400   64      20/  8/ 14 1016.6R
ATWATER BUOY     1400   60 58  360/ 12/ 16 1017.0R
MILWAUKEE LAKESH 1400   61     360/ 13/ 17   N/A
KENOSHA   LAKESH 1400   59      10/ 17/ 22 1015.6R
$$

TC  - TEMPERATURE IN CELSIUS
VSB - VISIBILITY IN STATUTE MILES
WCI - WIND CHILL INDEX
HX  - HEAT INDEX




USA.gov is the U.S. government's official web portal to all federal, state and local government web resources and services.